Find Kosmos-735

NORAD ID: 7824 Int'l Des: 1975-045 Owner: GUKOSR Country: SU operational
LEOCIRCULAR

リアルタイム位置

3D地球を読み込み中...

Kosmos-735について

説明を読み込み中...

次回通過

Passes for default location (London). Set your location on the main map for personalized predictions.

高度履歴

Loading altitude history...

軌道要素

1 07824U 75045D 26107.24390171 -.00000029 00000-0 -84572-4 0 9998
2 07824 74.0184 56.7041 0007680 355.6380 72.2764 12.49368698320976
Epoch: Apr 17, 2026 • Age: 14 hours

現在のステータス

高度 1479.8 km
速度 7.13 km/s
衛星直下点 73.99°N, 2.05°E
タイプ other

Most Searched